FDX375 RODN-WSSS

Flight info

Callsign FDX375
Flight time 5h 3m
Altitude 34000
Route NHC V91 MJC G581 TULTO Q13 KABAM/N0472F350 N892 MUMOT/N0466F360 N892 MIGUG/K0863F360 N892 MELAS/N0468F360 N892 MABAL MABAL2A
Aircraft B752/M-SDE2E3FGHIJ3J4J7RWXY/LB1

Departure

Time 2026-04-24 16:46
Airport Kadena Air Base (RODN)

Arrival

Time 2026-04-24 21:50
Airport Singapore Changi Airport (WSSS)
Time Latitude Longitude Altitude Speed Heading
2026-04-24 16:08 26.35100 127.76893 155 ft 0 kts 160°
2026-04-24 16:39 26.35092 127.76896 156 ft 1 kts 161°
2026-04-24 16:39 26.35077 127.76901 157 ft 2 kts 161°
2026-04-24 16:39 26.35059 127.76905 158 ft 2 kts 182°
2026-04-24 16:39 26.35028 127.76891 158 ft 4 kts 250°
2026-04-24 16:40 26.35029 127.76827 153 ft 8 kts 240°
2026-04-24 16:40 26.34989 127.76746 148 ft 15 kts 253°
2026-04-24 16:40 26.34942 127.76620 141 ft 18 kts 230°
2026-04-24 16:40 26.34857 127.76508 135 ft 19 kts 230°
2026-04-24 16:41 26.34767 127.76385 130 ft 21 kts 232°
2026-04-24 16:41 26.34672 127.76253 124 ft 22 kts 231°
2026-04-24 16:41 26.34568 127.76111 117 ft 24 kts 231°
2026-04-24 16:41 26.34477 127.75987 109 ft 20 kts 230°
2026-04-24 16:42 26.34391 127.75869 103 ft 15 kts 230°
2026-04-24 16:42 26.34319 127.75771 97 ft 17 kts 230°
2026-04-24 16:42 26.34271 127.75700 93 ft 8 kts 242°
2026-04-24 16:42 26.34285 127.75635 89 ft 9 kts 317°
2026-04-24 16:43 26.34288 127.75633 89 ft 0 kts 317°
2026-04-24 16:43 26.34294 127.75628 89 ft 3 kts 320°
2026-04-24 16:44 26.34320 127.75603 88 ft 6 kts 320°
2026-04-24 16:44 26.34355 127.75571 87 ft 6 kts 322°
2026-04-24 16:44 26.34395 127.75537 86 ft 7 kts 322°
2026-04-24 16:44 26.34430 127.75537 86 ft 3 kts 41°
2026-04-24 16:45 26.34436 127.75545 87 ft 0 kts 53°
2026-04-24 16:45 26.34442 127.75553 87 ft 8 kts 53°
2026-04-24 16:45 26.34606 127.75781 99 ft 71 kts 50°
2026-04-24 16:46 26.35063 127.76402 127 ft 124 kts 51°
2026-04-24 16:46 26.35701 127.77277 172 ft 177 kts 50°
2026-04-24 16:46 26.36550 127.78456 588 ft 213 kts 51°
2026-04-24 16:46 26.37565 127.79680 1613 ft 223 kts 26°
2026-04-24 16:47 26.38951 127.80048 3153 ft 204 kts 356°
2026-04-24 16:47 26.40284 127.79688 4266 ft 203 kts 328°
2026-04-24 16:47 26.41335 127.78571 4985 ft 222 kts 301°
2026-04-24 16:47 26.41820 127.77033 5738 ft 205 kts 276°
2026-04-24 16:48 26.41485 127.75442 5846 ft 224 kts 237°
2026-04-24 16:48 26.40247 127.74309 6092 ft 238 kts 209°
2026-04-24 16:48 26.38611 127.73956 6366 ft 248 kts 180°
2026-04-24 16:48 26.36928 127.73982 6893 ft 234 kts 200°
2026-04-24 16:49 26.35566 127.73164 7490 ft 221 kts 226°
2026-04-24 16:49 26.34348 127.72084 8035 ft 226 kts 220°
2026-04-24 16:49 26.32963 127.71098 8276 ft 246 kts 216°
2026-04-24 16:49 26.31436 127.70132 8585 ft 262 kts 213°
2026-04-24 16:50 26.30330 127.69476 8791 ft 273 kts 212°
2026-04-24 16:50 26.28051 127.68191 9620 ft 277 kts 212°
2026-04-24 16:50 26.26304 127.67232 10248 ft 280 kts 211°
2026-04-24 16:50 26.24521 127.66263 10552 ft 296 kts 210°
2026-04-24 16:51 26.22606 127.65229 10721 ft 314 kts 211°
2026-04-24 16:51 26.20773 127.63813 10894 ft 327 kts 227°
2026-04-24 16:51 26.19354 127.61800 11070 ft 341 kts 239°
2026-04-24 16:51 26.18027 127.59571 11567 ft 348 kts 237°
2026-04-24 16:52 26.16665 127.57307 12230 ft 349 kts 237°
2026-04-24 16:52 26.15321 127.55067 12776 ft 353 kts 237°
2026-04-24 16:52 26.13944 127.52774 13348 ft 355 kts 237°
2026-04-24 16:52 26.12576 127.50495 13925 ft 357 kts 237°
2026-04-24 16:53 26.11202 127.48209 14460 ft 358 kts 237°
2026-04-24 16:53 26.09822 127.45912 15034 ft 359 kts 237°
2026-04-24 16:53 26.08418 127.43575 15493 ft 362 kts 237°
2026-04-24 16:53 26.07025 127.41260 15986 ft 362 kts 237°
2026-04-24 16:54 26.05622 127.38934 16425 ft 364 kts 237°
2026-04-24 16:54 26.04212 127.36599 16924 ft 363 kts 237°
2026-04-24 16:54 26.02803 127.34264 17254 ft 367 kts 237°
2026-04-24 16:54 26.01397 127.31936 17707 ft 366 kts 237°
2026-04-24 16:55 25.99971 127.29579 18080 ft 368 kts 236°
2026-04-24 16:55 25.98530 127.27196 18414 ft 371 kts 237°
2026-04-24 16:55 25.97093 127.24820 18818 ft 372 kts 237°
2026-04-24 16:55 25.95649 127.22433 19147 ft 374 kts 237°
2026-04-24 16:56 25.94208 127.20055 19600 ft 373 kts 237°
2026-04-24 16:56 25.92751 127.17649 19824 ft 378 kts 237°
2026-04-24 16:56 25.91301 127.15258 20280 ft 376 kts 237°
2026-04-24 16:56 25.89825 127.12824 20487 ft 381 kts 237°
2026-04-24 16:57 25.88343 127.10381 20908 ft 380 kts 237°
2026-04-24 16:57 25.86857 127.07934 21167 ft 383 kts 237°
2026-04-24 16:57 25.85379 127.05500 21519 ft 383 kts 238°
2026-04-24 16:57 25.83873 127.03026 21781 ft 385 kts 237°
2026-04-24 16:58 25.82398 127.00597 22145 ft 385 kts 237°
2026-04-24 16:58 25.80883 126.98108 22335 ft 389 kts 238°
2026-04-24 16:58 25.79375 126.95631 22614 ft 390 kts 238°
2026-04-24 16:58 25.77855 126.93135 22976 ft 389 kts 237°
2026-04-24 16:59 25.76329 126.90629 23065 ft 395 kts 237°
2026-04-24 16:59 25.74814 126.88146 23445 ft 392 kts 237°
2026-04-24 16:59 25.71757 126.83106 23940 ft 395 kts 237°
2026-04-24 17:00 25.70217 126.80566 24110 ft 399 kts 237°
2026-04-24 17:00 25.67109 126.75447 24617 ft 401 kts 238°
2026-04-24 17:00 25.65553 126.72884 24851 ft 402 kts 237°
2026-04-24 17:01 25.62442 126.67769 25289 ft 405 kts 237°
2026-04-24 17:01 25.60851 126.65153 25546 ft 405 kts 237°
2026-04-24 17:02 25.58217 126.60829 25847 ft 408 kts 237°
2026-04-24 17:02 25.56107 126.57366 26161 ft 410 kts 237°
2026-04-24 17:02 25.54516 126.54758 26406 ft 410 kts 237°
2026-04-24 17:02 25.52926 126.52153 26534 ft 413 kts 237°
2026-04-24 17:03 25.49717 126.46860 26943 ft 415 kts 237°
2026-04-24 17:03 25.48111 126.44207 27169 ft 416 kts 237°
2026-04-24 17:03 25.46498 126.41541 27403 ft 416 kts 237°
2026-04-24 17:04 25.44895 126.38895 27528 ft 418 kts 237°
2026-04-24 17:04 25.41645 126.33534 27928 ft 419 kts 237°
2026-04-24 17:04 25.40026 126.30865 28132 ft 420 kts 237°
2026-04-24 17:05 25.38392 126.28174 28248 ft 422 kts 237°
2026-04-24 17:05 25.36768 126.25500 28488 ft 422 kts 237°
2026-04-24 17:05 25.33499 126.20122 28949 ft 422 kts 237°
2026-04-24 17:06 25.31850 126.17416 29212 ft 421 kts 237°
2026-04-24 17:06 25.28605 126.12085 29773 ft 417 kts 237°
2026-04-24 17:06 25.26985 126.09426 29994 ft 417 kts 237°
2026-04-24 17:07 25.25897 126.07644 30115 ft 417 kts 237°
2026-04-24 17:07 25.23753 126.04132 30334 ft 417 kts 237°
2026-04-24 17:07 25.20549 125.98886 30832 ft 414 kts 237°
2026-04-24 17:08 25.17316 125.93597 31247 ft 412 kts 238°
2026-04-24 17:08 25.15711 125.90975 31389 ft 413 kts 237°
2026-04-24 17:08 25.14123 125.88385 31630 ft 410 kts 237°
2026-04-24 17:09 25.10908 125.83139 31958 ft 410 kts 238°
2026-04-24 17:09 25.07736 125.77969 32283 ft 409 kts 238°
2026-04-24 17:10 25.06139 125.75369 32556 ft 406 kts 237°
2026-04-24 17:10 25.01356 125.67591 32911 ft 407 kts 237°
2026-04-24 17:11 24.96586 125.59849 33405 ft 405 kts 237°
2026-04-24 17:12 24.88680 125.47044 34021 ft 401 kts 237°
2026-04-24 18:54 17.11791 115.83370 35924 ft 447 kts 225°
2026-04-24 18:55 17.05078 115.76608 35920 ft 447 kts 225°
2026-04-24 18:56 17.00614 115.72116 35920 ft 448 kts 225°
2026-04-24 18:56 16.96103 115.67580 35921 ft 449 kts 225°
2026-04-24 18:57 16.91624 115.63078 35921 ft 449 kts 225°
2026-04-24 18:57 16.87117 115.58552 35923 ft 448 kts 225°
2026-04-24 18:58 16.82615 115.54033 35925 ft 449 kts 225°
2026-04-24 18:58 16.78102 115.49507 35924 ft 450 kts 225°
2026-04-24 18:59 16.73590 115.44985 35926 ft 450 kts 225°
2026-04-24 18:59 16.69095 115.40483 35925 ft 449 kts 225°
2026-04-24 19:00 16.64591 115.35976 35923 ft 450 kts 225°
2026-04-24 19:00 16.60074 115.31458 35925 ft 450 kts 224°
2026-04-24 19:01 16.55553 115.26939 35927 ft 450 kts 224°
2026-04-24 19:01 16.51048 115.22440 35926 ft 450 kts 224°
2026-04-24 19:02 16.47290 115.18689 35925 ft 449 kts 225°
2026-04-24 19:02 16.42023 115.13435 35926 ft 450 kts 225°
2026-04-24 19:03 16.37493 115.08920 35928 ft 450 kts 225°
2026-04-24 19:03 16.32981 115.04425 35926 ft 450 kts 224°
2026-04-24 19:04 16.28456 114.99921 35926 ft 450 kts 224°
2026-04-24 19:04 16.23920 114.95409 35924 ft 450 kts 225°
2026-04-24 19:05 16.19408 114.90925 35923 ft 450 kts 225°
2026-04-24 19:05 16.14851 114.86397 35925 ft 451 kts 225°
2026-04-24 19:06 16.10335 114.81915 35924 ft 451 kts 225°
2026-04-24 19:06 16.05789 114.77404 35925 ft 450 kts 225°
2026-04-24 19:07 16.01275 114.72928 35922 ft 450 kts 225°
2026-04-24 19:07 15.97480 114.69168 35922 ft 450 kts 225°
2026-04-24 19:08 15.92196 114.63937 35927 ft 451 kts 224°
2026-04-24 19:08 15.87663 114.59451 35925 ft 451 kts 225°
2026-04-24 19:09 15.83132 114.54971 35927 ft 451 kts 225°
2026-04-24 19:09 15.78559 114.50452 35923 ft 452 kts 225°
2026-04-24 19:10 15.74026 114.45976 35914 ft 452 kts 225°
2026-04-24 19:10 15.69442 114.41451 35910 ft 452 kts 225°
2026-04-24 19:11 15.64898 114.36970 35909 ft 453 kts 225°
2026-04-24 19:11 15.60327 114.32465 35914 ft 452 kts 224°
2026-04-24 19:12 15.55782 114.27988 35913 ft 453 kts 224°
2026-04-24 19:12 15.51195 114.23473 35911 ft 453 kts 224°
2026-04-24 19:13 15.47403 114.19743 35909 ft 453 kts 224°
2026-04-24 19:13 15.42050 114.14480 35905 ft 454 kts 224°
2026-04-24 19:14 15.37468 114.09978 35905 ft 455 kts 224°
2026-04-24 19:14 15.32886 114.05479 35905 ft 454 kts 224°
2026-04-24 19:15 15.28294 114.00987 35904 ft 455 kts 222°
2026-04-24 19:15 15.23221 113.97024 35900 ft 456 kts 217°
2026-04-24 19:16 15.15490 113.91250 35903 ft 456 kts 217°
2026-04-24 19:16 15.10332 113.87419 35907 ft 457 kts 217°
2026-04-24 19:17 15.05180 113.83598 35910 ft 458 kts 217°
2026-04-24 19:17 14.99985 113.79751 35917 ft 459 kts 217°
2026-04-24 19:18 14.94798 113.75913 35922 ft 458 kts 217°
2026-04-24 19:18 14.89589 113.72061 35921 ft 459 kts 217°
2026-04-24 19:19 14.84391 113.68220 35919 ft 460 kts 217°
2026-04-24 19:19 14.79186 113.64374 35922 ft 460 kts 217°
2026-04-24 19:20 14.73975 113.60529 35921 ft 459 kts 217°
2026-04-24 19:20 14.68752 113.56674 35916 ft 460 kts 217°
2026-04-24 19:21 14.63550 113.52839 35918 ft 460 kts 217°
2026-04-24 19:21 14.58321 113.48987 35917 ft 460 kts 217°
2026-04-24 19:22 14.53100 113.45142 35921 ft 462 kts 217°
2026-04-24 19:22 14.47881 113.41294 35918 ft 462 kts 217°
2026-04-24 19:23 14.42605 113.37395 35917 ft 462 kts 217°
2026-04-24 19:23 14.37392 113.33545 35925 ft 463 kts 217°
2026-04-24 19:24 14.32152 113.29678 35927 ft 462 kts 217°
2026-04-24 19:24 14.26918 113.25817 35927 ft 462 kts 217°
2026-04-24 19:25 14.21682 113.21957 35927 ft 464 kts 217°
2026-04-24 19:25 14.16418 113.18079 35926 ft 464 kts 217°
2026-04-24 19:26 14.11169 113.14214 35926 ft 465 kts 217°
2026-04-24 19:26 14.05875 113.10317 35926 ft 465 kts 217°
2026-04-24 19:27 14.00603 113.06441 35926 ft 465 kts 217°
2026-04-24 19:27 13.95349 113.02582 35923 ft 464 kts 217°
2026-04-24 19:28 13.90078 112.98719 35922 ft 464 kts 216°
2026-04-24 19:28 13.84807 112.94858 35912 ft 465 kts 217°
2026-04-24 19:29 13.76878 112.89053 35904 ft 466 kts 217°
2026-04-24 19:30 13.71580 112.85178 35904 ft 465 kts 216°
2026-04-24 19:30 13.66287 112.81308 35904 ft 465 kts 217°
2026-04-24 19:31 13.60998 112.77443 35904 ft 466 kts 217°
2026-04-24 19:31 13.55722 112.73589 35905 ft 466 kts 216°
2026-04-24 19:32 13.50445 112.69738 35904 ft 467 kts 217°
2026-04-24 19:32 13.45123 112.65855 35904 ft 467 kts 216°
2026-04-24 19:33 13.39808 112.61980 35904 ft 467 kts 216°
2026-04-24 19:33 13.34492 112.58107 35904 ft 468 kts 216°
2026-04-24 19:34 13.29168 112.54230 35904 ft 468 kts 217°
2026-04-24 19:34 13.23855 112.50362 35904 ft 468 kts 216°
2026-04-24 19:35 13.18513 112.46476 35904 ft 468 kts 216°
2026-04-24 19:35 13.13217 112.42625 35904 ft 468 kts 216°
2026-04-24 19:36 13.07883 112.38750 35905 ft 468 kts 216°
2026-04-24 19:36 13.02582 112.34899 35905 ft 469 kts 216°
2026-04-24 19:37 12.97246 112.31025 35906 ft 471 kts 216°
2026-04-24 19:37 12.91870 112.27125 35906 ft 472 kts 216°
2026-04-24 19:38 12.86493 112.23227 35906 ft 470 kts 216°
2026-04-24 19:38 12.81155 112.19357 35904 ft 470 kts 216°
2026-04-24 19:39 12.75809 112.15485 35905 ft 470 kts 216°
2026-04-24 19:39 12.70489 112.11633 35906 ft 470 kts 216°
2026-04-24 19:40 12.65138 112.07761 35905 ft 471 kts 216°
2026-04-24 19:40 12.59786 112.03891 35905 ft 471 kts 216°
2026-04-24 19:41 12.54408 112.00003 35905 ft 471 kts 216°
2026-04-24 19:41 12.49072 111.96148 35900 ft 471 kts 216°
2026-04-24 19:42 12.43710 111.92276 35898 ft 471 kts 216°
2026-04-24 19:42 12.38333 111.88395 35892 ft 471 kts 216°
2026-04-24 19:43 12.32989 111.84519 35889 ft 471 kts 216°
2026-04-24 19:43 12.27647 111.80637 35890 ft 472 kts 216°
2026-04-24 19:44 12.22267 111.76728 35886 ft 471 kts 216°
2026-04-24 19:44 12.16942 111.72862 35888 ft 472 kts 216°
2026-04-24 19:45 12.11556 111.68953 35885 ft 471 kts 216°
2026-04-24 19:45 12.06209 111.65074 35884 ft 471 kts 216°
2026-04-24 19:46 12.00844 111.61184 35886 ft 473 kts 216°
2026-04-24 19:46 11.95497 111.57310 35883 ft 473 kts 216°
2026-04-24 19:47 11.90113 111.53410 35885 ft 472 kts 216°
2026-04-24 19:47 11.84725 111.49510 35882 ft 472 kts 216°
2026-04-24 19:48 11.79368 111.45633 35882 ft 472 kts 216°
2026-04-24 19:48 11.71323 111.39816 35889 ft 472 kts 216°
2026-04-24 19:49 11.60556 111.32037 35895 ft 472 kts 215°
2026-04-24 19:50 11.49809 111.24279 35894 ft 472 kts 215°
2026-04-24 19:51 11.41770 111.18481 35890 ft 471 kts 215°
2026-04-24 19:52 11.33708 111.12671 35879 ft 473 kts 215°
2026-04-24 19:52 11.28301 111.08796 35880 ft 472 kts 215°
2026-04-24 19:53 11.22888 111.04954 35874 ft 473 kts 214°
2026-04-24 19:54 11.14793 110.99211 35885 ft 472 kts 215°
2026-04-24 19:54 11.09412 110.95395 35889 ft 472 kts 215°
2026-04-24 19:55 11.05818 110.92847 35886 ft 471 kts 215°
2026-04-24 19:55 10.98611 110.87740 35884 ft 472 kts 215°
2026-04-24 19:56 10.93235 110.83933 35883 ft 473 kts 215°
2026-04-24 19:56 10.87800 110.80087 35884 ft 473 kts 215°
2026-04-24 19:57 10.82419 110.76279 35884 ft 470 kts 215°
2026-04-24 19:57 10.76994 110.72443 35882 ft 471 kts 215°
2026-04-24 19:58 10.71595 110.68626 35882 ft 471 kts 215°
2026-04-24 19:58 10.66183 110.64802 35886 ft 472 kts 215°
2026-04-24 19:59 10.60757 110.60970 35886 ft 472 kts 215°
2026-04-24 19:59 10.55377 110.57171 35885 ft 471 kts 215°
2026-04-24 20:00 10.49990 110.53369 35884 ft 471 kts 215°
2026-04-24 20:00 10.44555 110.49536 35885 ft 472 kts 215°
2026-04-24 20:01 10.39179 110.45746 35884 ft 471 kts 215°
2026-04-24 20:01 10.33788 110.41946 35881 ft 471 kts 215°
2026-04-24 20:02 10.29278 110.38769 35876 ft 471 kts 215°
2026-04-24 20:02 10.22973 110.34329 35870 ft 471 kts 215°
2026-04-24 20:03 10.17536 110.30487 35869 ft 472 kts 215°
2026-04-24 20:03 10.12132 110.26667 35865 ft 471 kts 215°
2026-04-24 20:04 10.06716 110.22839 35867 ft 472 kts 215°
2026-04-24 20:04 10.01288 110.19005 35863 ft 471 kts 215°
2026-04-24 20:05 9.95914 110.15210 35864 ft 472 kts 215°
2026-04-24 20:05 9.90502 110.11391 35865 ft 472 kts 215°
2026-04-24 20:06 9.85076 110.07561 35864 ft 471 kts 215°
2026-04-24 20:06 9.79698 110.03770 35862 ft 471 kts 215°
2026-04-24 20:07 9.75184 110.00587 35865 ft 470 kts 215°
2026-04-24 20:07 9.68884 109.96148 35865 ft 471 kts 216°
2026-04-24 20:08 9.63503 109.92357 35866 ft 470 kts 216°
2026-04-24 20:08 9.58122 109.88569 35864 ft 470 kts 216°
2026-04-24 20:09 9.52732 109.84775 35863 ft 470 kts 216°
2026-04-24 20:09 9.47320 109.80971 35864 ft 470 kts 216°
2026-04-24 20:10 9.41921 109.77177 35865 ft 469 kts 216°
2026-04-24 20:10 9.36559 109.73412 35865 ft 469 kts 216°
2026-04-24 20:11 9.31180 109.69636 35864 ft 468 kts 216°
2026-04-24 20:11 9.25843 109.65891 35861 ft 468 kts 216°
2026-04-24 20:12 9.20461 109.62116 35860 ft 469 kts 216°
2026-04-24 20:12 9.15986 109.58978 35856 ft 468 kts 216°
2026-04-24 20:13 9.09731 109.54592 35858 ft 467 kts 216°
2026-04-24 20:13 9.04388 109.50849 35853 ft 467 kts 216°
2026-04-24 20:14 8.99014 109.47086 35846 ft 467 kts 216°
2026-04-24 20:14 8.93660 109.43336 35847 ft 467 kts 216°
2026-04-24 20:15 8.88327 109.39603 35853 ft 467 kts 216°
2026-04-24 20:15 8.82962 109.35850 35854 ft 467 kts 216°
2026-04-24 20:16 8.77598 109.32117 35860 ft 467 kts 215°
2026-04-24 20:16 8.72206 109.28368 35860 ft 467 kts 215°
2026-04-24 20:17 8.66829 109.24631 35863 ft 467 kts 216°
2026-04-24 20:17 8.58798 109.19050 35864 ft 467 kts 216°
2026-04-24 20:18 8.53408 109.15307 35864 ft 467 kts 216°
2026-04-24 20:18 8.48066 109.11598 35863 ft 467 kts 215°
2026-04-24 20:19 8.42667 109.07851 35864 ft 466 kts 216°
2026-04-24 20:19 8.37304 109.04131 35863 ft 466 kts 216°
2026-04-24 20:20 8.31944 109.00413 35864 ft 466 kts 216°
2026-04-24 20:20 8.26591 108.96702 35865 ft 466 kts 216°
2026-04-24 20:21 8.21197 108.92963 35863 ft 466 kts 216°
2026-04-24 20:21 8.15853 108.89262 35861 ft 465 kts 216°
2026-04-24 20:22 8.10517 108.85565 35862 ft 465 kts 216°
2026-04-24 20:22 8.05172 108.81865 35860 ft 465 kts 216°
2026-04-24 20:23 7.99805 108.78149 35856 ft 464 kts 216°
2026-04-24 20:23 7.94470 108.74458 35849 ft 464 kts 216°
2026-04-24 20:24 7.89129 108.70763 35842 ft 464 kts 216°
2026-04-24 20:24 7.83793 108.67074 35842 ft 464 kts 216°
2026-04-24 20:25 7.78467 108.63392 35842 ft 464 kts 216°
2026-04-24 20:25 7.73095 108.59679 35843 ft 464 kts 216°
2026-04-24 20:26 7.67743 108.55982 35842 ft 464 kts 216°
2026-04-24 20:26 7.62417 108.52304 35842 ft 465 kts 215°
2026-04-24 20:27 7.57042 108.48593 35842 ft 465 kts 215°
2026-04-24 20:27 7.51700 108.44906 35842 ft 465 kts 215°
2026-04-24 20:28 7.46333 108.41202 35842 ft 465 kts 215°
2026-04-24 20:28 7.40998 108.37524 35842 ft 465 kts 215°
2026-04-24 20:29 7.35602 108.33802 35843 ft 465 kts 215°
2026-04-24 20:29 7.30226 108.30096 35844 ft 466 kts 215°
2026-04-24 20:30 7.24853 108.26393 35841 ft 466 kts 215°
2026-04-24 20:30 7.19469 108.22684 35835 ft 466 kts 215°
2026-04-24 20:31 7.14136 108.19011 35834 ft 466 kts 215°
2026-04-24 20:31 7.08745 108.15298 35840 ft 465 kts 215°
2026-04-24 20:32 7.03415 108.11581 35846 ft 465 kts 215°
2026-04-24 20:32 6.98086 108.07867 35846 ft 466 kts 215°
2026-04-24 20:33 6.92739 108.04140 35843 ft 466 kts 215°
2026-04-24 20:33 6.87390 108.00414 35843 ft 467 kts 215°
2026-04-24 20:34 6.82022 107.96674 35843 ft 467 kts 215°
2026-04-24 20:34 6.76687 107.92960 35842 ft 467 kts 215°
2026-04-24 20:35 6.71323 107.89225 35841 ft 467 kts 215°
2026-04-24 20:35 6.65943 107.85481 35841 ft 465 kts 215°
2026-04-24 20:36 6.60648 107.81797 35842 ft 465 kts 215°
2026-04-24 20:36 6.55258 107.78047 35843 ft 467 kts 215°
2026-04-24 20:37 6.49893 107.74317 35843 ft 468 kts 215°
2026-04-24 20:37 6.44543 107.70598 35842 ft 468 kts 215°
2026-04-24 20:38 6.39172 107.66864 35843 ft 468 kts 215°
2026-04-24 20:38 6.33778 107.63116 35842 ft 466 kts 215°
2026-04-24 20:39 6.28464 107.59425 35843 ft 465 kts 215°
2026-04-24 20:39 6.23103 107.55702 35842 ft 465 kts 215°
2026-04-24 20:40 6.17786 107.52010 35843 ft 466 kts 215°
2026-04-24 20:40 6.12420 107.48285 35842 ft 467 kts 214°
2026-04-24 20:41 6.07033 107.44546 35841 ft 467 kts 214°
2026-04-24 20:41 6.01681 107.40834 35833 ft 466 kts 214°
2026-04-24 20:42 5.96339 107.37128 35829 ft 465 kts 214°
2026-04-24 20:42 5.90996 107.33423 35825 ft 465 kts 214°
2026-04-24 20:43 5.85622 107.29697 35822 ft 466 kts 214°
2026-04-24 20:43 5.80281 107.25995 35822 ft 467 kts 214°
2026-04-24 20:44 5.74877 107.22250 35821 ft 467 kts 214°
2026-04-24 20:44 5.69519 107.18538 35821 ft 465 kts 214°
2026-04-24 20:45 5.64203 107.14856 35821 ft 465 kts 214°
2026-04-24 20:45 5.58850 107.11149 35823 ft 465 kts 214°
2026-04-24 20:46 5.53509 107.07451 35821 ft 465 kts 214°
2026-04-24 20:46 5.48120 107.03721 35821 ft 468 kts 214°
2026-04-24 20:47 5.42741 106.99999 35829 ft 468 kts 214°
2026-04-24 20:47 5.37345 106.96265 35838 ft 468 kts 214°
2026-04-24 20:48 5.31987 106.92559 35843 ft 468 kts 214°
2026-04-24 20:48 5.26617 106.88846 35843 ft 468 kts 214°
2026-04-24 20:49 5.21218 106.85112 35843 ft 468 kts 214°
2026-04-24 20:49 5.15846 106.81400 35843 ft 468 kts 214°
2026-04-24 20:50 5.10448 106.77669 35843 ft 469 kts 214°
2026-04-24 20:50 5.05029 106.73923 35843 ft 469 kts 214°
2026-04-24 20:51 4.99627 106.70192 35843 ft 469 kts 214°
2026-04-24 20:51 4.94232 106.66465 35842 ft 470 kts 214°
2026-04-24 20:52 4.88814 106.62724 35843 ft 470 kts 214°
2026-04-24 20:52 4.83406 106.58991 35842 ft 469 kts 214°
2026-04-24 20:53 4.78034 106.55282 35841 ft 468 kts 214°
2026-04-24 20:53 4.72624 106.51548 35840 ft 469 kts 214°
2026-04-24 20:54 4.67267 106.47852 35835 ft 468 kts 214°
2026-04-24 20:54 4.61865 106.44125 35830 ft 469 kts 214°
2026-04-24 20:55 4.56470 106.40403 35825 ft 469 kts 214°
2026-04-24 20:55 4.51063 106.36674 35823 ft 468 kts 214°
2026-04-24 20:56 4.45685 106.32967 35821 ft 467 kts 214°
2026-04-24 20:56 4.40296 106.29252 35819 ft 467 kts 214°
2026-04-24 20:57 4.34898 106.25531 35822 ft 468 kts 214°
2026-04-24 20:57 4.29607 106.21717 35826 ft 469 kts 221°
2026-04-24 20:58 4.25240 106.16856 35822 ft 471 kts 230°
2026-04-24 20:58 4.21059 106.11762 35821 ft 470 kts 230°
2026-04-24 20:59 4.16904 106.06664 35821 ft 469 kts 230°
2026-04-24 20:59 4.12799 106.01614 35822 ft 467 kts 230°
2026-04-24 21:00 4.08667 105.96529 35822 ft 467 kts 230°
2026-04-24 21:00 4.04544 105.91451 35822 ft 469 kts 230°
2026-04-24 21:01 4.00432 105.86390 35827 ft 469 kts 230°
2026-04-24 21:01 3.96306 105.81311 35839 ft 469 kts 230°
2026-04-24 21:02 3.92160 105.76208 35841 ft 469 kts 230°
2026-04-24 21:02 3.88022 105.71116 35844 ft 467 kts 230°
2026-04-24 21:03 3.83913 105.66060 35843 ft 466 kts 230°
2026-04-24 21:03 3.79792 105.60992 35844 ft 467 kts 230°
2026-04-24 21:04 3.75676 105.55928 35844 ft 467 kts 230°
2026-04-24 21:04 3.71566 105.50864 35840 ft 467 kts 230°
2026-04-24 21:05 3.67457 105.45792 35842 ft 467 kts 230°
2026-04-24 21:05 3.63367 105.40745 35841 ft 467 kts 230°
2026-04-24 21:06 3.59250 105.35665 35843 ft 467 kts 230°
2026-04-24 21:06 3.55137 105.30592 35842 ft 468 kts 230°
2026-04-24 21:07 3.51036 105.25534 35833 ft 469 kts 230°
2026-04-24 21:07 3.46910 105.20451 35824 ft 470 kts 230°
2026-04-24 21:08 3.42758 105.15366 35821 ft 469 kts 230°
2026-04-24 21:08 3.38613 105.10289 35821 ft 468 kts 230°
2026-04-24 21:09 3.34466 105.05212 35822 ft 469 kts 230°
2026-04-24 21:09 3.30303 105.00113 35819 ft 471 kts 230°
2026-04-24 21:10 3.26149 104.95026 35821 ft 471 kts 230°
2026-04-24 21:10 3.22009 104.89957 35821 ft 470 kts 230°
2026-04-24 21:11 3.17860 104.84875 35824 ft 470 kts 230°
2026-04-24 21:11 3.13720 104.79806 35826 ft 469 kts 230°
2026-04-24 21:12 3.10270 104.75582 35827 ft 469 kts 230°
2026-04-24 21:12 3.05447 104.69676 35836 ft 469 kts 230°
2026-04-24 21:13 3.01299 104.64598 35838 ft 469 kts 230°
2026-04-24 21:13 2.97144 104.59512 35842 ft 470 kts 230°
2026-04-24 21:14 2.95073 104.56977 35627 ft 475 kts 230°
2026-04-24 21:14 2.92962 104.54393 35188 ft 476 kts 230°
2026-04-24 21:14 2.90880 104.51843 34755 ft 471 kts 230°
2026-04-24 21:14 2.88806 104.49303 34320 ft 464 kts 230°
2026-04-24 21:15 2.86777 104.46819 33871 ft 461 kts 230°
2026-04-24 21:15 2.84732 104.44316 33386 ft 460 kts 230°
2026-04-24 21:15 2.82699 104.41827 32905 ft 458 kts 230°
2026-04-24 21:15 2.80688 104.39364 32446 ft 455 kts 230°
2026-04-24 21:16 2.78688 104.36916 32019 ft 453 kts 230°
2026-04-24 21:16 2.76696 104.34478 31591 ft 450 kts 230°
2026-04-24 21:16 2.74719 104.32058 31162 ft 448 kts 230°
2026-04-24 21:16 2.72739 104.29634 30729 ft 446 kts 230°
2026-04-24 21:17 2.70782 104.27238 30301 ft 444 kts 230°
2026-04-24 21:17 2.68847 104.24870 29874 ft 442 kts 230°
2026-04-24 21:17 2.66890 104.22474 29441 ft 439 kts 230°
2026-04-24 21:17 2.65609 104.20907 29157 ft 437 kts 230°
2026-04-24 21:18 2.63056 104.17780 28586 ft 433 kts 230°
2026-04-24 21:18 2.61163 104.15463 28162 ft 430 kts 230°
2026-04-24 21:18 2.59272 104.13148 27739 ft 428 kts 230°
2026-04-24 21:18 2.57369 104.10820 27311 ft 427 kts 230°
2026-04-24 21:19 2.55511 104.08546 26894 ft 425 kts 230°
2026-04-24 21:19 2.53641 104.06257 26470 ft 422 kts 230°
2026-04-24 21:19 2.51778 104.03976 26046 ft 420 kts 230°
2026-04-24 21:19 2.49927 104.01711 25622 ft 418 kts 230°
2026-04-24 21:20 2.46278 103.97245 24783 ft 414 kts 230°
2026-04-24 21:20 2.44672 103.95280 24415 ft 412 kts 230°
2026-04-24 21:20 2.42865 103.93069 23997 ft 409 kts 230°
2026-04-24 21:21 2.41072 103.90874 23580 ft 407 kts 230°
2026-04-24 21:21 2.39255 103.88650 23161 ft 405 kts 230°
2026-04-24 21:21 2.37485 103.86485 22756 ft 403 kts 230°
2026-04-24 21:21 2.35698 103.84298 22344 ft 401 kts 230°
2026-04-24 21:22 2.33948 103.82156 21951 ft 398 kts 230°
2026-04-24 21:22 2.32186 103.79999 21561 ft 396 kts 230°
2026-04-24 21:22 2.30449 103.77875 21169 ft 394 kts 230°
2026-04-24 21:22 2.29280 103.76444 20906 ft 393 kts 230°
2026-04-24 21:23 2.26974 103.73621 20393 ft 391 kts 230°
2026-04-24 21:23 2.25252 103.71514 20004 ft 389 kts 230°
2026-04-24 21:23 2.23533 103.69410 19610 ft 386 kts 230°
2026-04-24 21:23 2.21839 103.67336 19225 ft 384 kts 229°
2026-04-24 21:24 2.20145 103.65263 18838 ft 382 kts 229°
2026-04-24 21:24 2.18481 103.63227 18450 ft 379 kts 229°
2026-04-24 21:24 2.16809 103.61179 18058 ft 377 kts 229°
2026-04-24 21:24 2.15148 103.59147 17669 ft 375 kts 229°
2026-04-24 21:25 2.13492 103.57121 17275 ft 373 kts 229°
2026-04-24 21:25 2.11850 103.55111 16888 ft 370 kts 229°
2026-04-24 21:25 2.10230 103.53128 16503 ft 368 kts 229°
2026-04-24 21:25 2.08604 103.51139 16116 ft 364 kts 229°
2026-04-24 21:26 2.07015 103.49194 15773 ft 360 kts 229°
2026-04-24 21:26 2.05436 103.47262 15426 ft 357 kts 229°
2026-04-24 21:26 2.03800 103.45367 15079 ft 354 kts 221°
2026-04-24 21:26 2.01828 103.43952 14776 ft 346 kts 203°
2026-04-24 21:27 1.99564 103.43201 14573 ft 338 kts 186°
2026-04-24 21:27 1.97213 103.43166 14374 ft 334 kts 168°
2026-04-24 21:27 1.94993 103.43841 14174 ft 331 kts 150°
2026-04-24 21:27 1.93692 103.44649 14038 ft 328 kts 139°
2026-04-24 21:28 1.91762 103.46960 13761 ft 321 kts 115°
2026-04-24 21:28 1.90914 103.49004 13546 ft 320 kts 111°
2026-04-24 21:28 1.90036 103.51076 13310 ft 321 kts 113°
2026-04-24 21:28 1.89119 103.53117 13076 ft 319 kts 114°
2026-04-24 21:29 1.88187 103.55133 12841 ft 319 kts 114°
2026-04-24 21:29 1.87245 103.57139 12603 ft 317 kts 115°
2026-04-24 21:29 1.86296 103.59141 12365 ft 316 kts 115°
2026-04-24 21:29 1.85349 103.61129 12136 ft 316 kts 115°
2026-04-24 21:30 1.84409 103.63095 11900 ft 312 kts 115°
2026-04-24 21:30 1.83469 103.65056 11684 ft 303 kts 115°
2026-04-24 21:30 1.82575 103.66923 11505 ft 294 kts 115°
2026-04-24 21:30 1.81703 103.68741 11332 ft 285 kts 115°
2026-04-24 21:31 1.80860 103.70497 11155 ft 277 kts 115°
2026-04-24 21:31 1.80024 103.72241 10980 ft 275 kts 115°
2026-04-24 21:31 1.79189 103.73980 10819 ft 278 kts 115°
2026-04-24 21:31 1.78354 103.75721 10659 ft 280 kts 115°
2026-04-24 21:32 1.77497 103.77505 10491 ft 279 kts 115°
2026-04-24 21:32 1.76664 103.79241 10315 ft 277 kts 115°
2026-04-24 21:32 1.75832 103.80973 10149 ft 277 kts 115°
2026-04-24 21:32 1.75000 103.82707 9987 ft 276 kts 115°
2026-04-24 21:33 1.74159 103.84458 9818 ft 276 kts 115°
2026-04-24 21:33 1.73605 103.85612 9690 ft 276 kts 115°
2026-04-24 21:33 1.72490 103.87935 9462 ft 275 kts 115°
2026-04-24 21:33 1.71662 103.89661 9293 ft 275 kts 115°
2026-04-24 21:34 1.70834 103.91383 9129 ft 275 kts 115°
2026-04-24 21:34 1.70005 103.93109 8962 ft 274 kts 115°
2026-04-24 21:34 1.69171 103.94836 8787 ft 272 kts 117°
2026-04-24 21:34 1.67985 103.96289 8648 ft 272 kts 143°
2026-04-24 21:35 1.66355 103.97252 8506 ft 275 kts 148°
2026-04-24 21:35 1.64725 103.98293 8337 ft 275 kts 144°
2026-04-24 21:35 1.63162 103.99393 8169 ft 273 kts 142°
2026-04-24 21:35 1.61621 104.00530 7999 ft 271 kts 141°
2026-04-24 21:36 1.60121 104.01668 7828 ft 270 kts 141°
2026-04-24 21:36 1.58605 104.02838 7655 ft 270 kts 141°
2026-04-24 21:36 1.57126 104.03989 7491 ft 270 kts 140°
2026-04-24 21:36 1.55638 104.05155 7322 ft 269 kts 140°
2026-04-24 21:37 1.54174 104.06305 7154 ft 268 kts 140°
2026-04-24 21:37 1.52703 104.07462 6983 ft 267 kts 140°
2026-04-24 21:37 1.51229 104.08623 6817 ft 268 kts 140°
2026-04-24 21:37 1.49767 104.09775 6647 ft 268 kts 140°
2026-04-24 21:38 1.48284 104.10944 6487 ft 267 kts 140°
2026-04-24 21:38 1.46745 104.11986 6311 ft 267 kts 156°
2026-04-24 21:38 1.44903 104.12291 6191 ft 270 kts 185°
2026-04-24 21:38 1.43083 104.11777 6070 ft 274 kts 200°
2026-04-24 21:39 1.41295 104.11065 5904 ft 275 kts 200°
2026-04-24 21:39 1.39505 104.10344 5736 ft 273 kts 201°
2026-04-24 21:39 1.37751 104.09621 5611 ft 270 kts 201°
2026-04-24 21:39 1.36002 104.08890 5492 ft 271 kts 201°
2026-04-24 21:40 1.34256 104.08157 5374 ft 272 kts 201°
2026-04-24 21:40 1.32495 104.07415 5233 ft 271 kts 201°
2026-04-24 21:40 1.30766 104.06685 5134 ft 271 kts 201°
2026-04-24 21:40 1.29002 104.05939 5014 ft 271 kts 201°
2026-04-24 21:41 1.27257 104.05200 4894 ft 271 kts 201°
2026-04-24 21:41 1.25514 104.04462 4771 ft 268 kts 201°
2026-04-24 21:41 1.23821 104.03745 4640 ft 259 kts 201°
2026-04-24 21:41 1.22175 104.03047 4510 ft 251 kts 201°
2026-04-24 21:42 1.20579 104.02371 4378 ft 244 kts 201°
2026-04-24 21:42 1.19020 104.01711 4247 ft 237 kts 201°
2026-04-24 21:42 1.17521 104.01077 4116 ft 230 kts 201°
2026-04-24 21:42 1.16055 104.00455 3992 ft 225 kts 201°
2026-04-24 21:43 1.14738 103.99628 3984 ft 222 kts 231°
2026-04-24 21:43 1.14099 103.98238 4022 ft 222 kts 267°
2026-04-24 21:43 1.14360 103.96798 4015 ft 206 kts 302°
2026-04-24 21:43 1.15120 103.95616 4002 ft 199 kts 304°
2026-04-24 21:44 1.15846 103.94445 3832 ft 196 kts 304°
2026-04-24 21:44 1.16546 103.93299 3660 ft 189 kts 304°
2026-04-24 21:44 1.17226 103.92186 3454 ft 184 kts 306°
2026-04-24 21:44 1.18155 103.91412 3252 ft 168 kts 349°
2026-04-24 21:45 1.19241 103.91464 3094 ft 153 kts 21°
2026-04-24 21:45 1.20261 103.91804 2906 ft 153 kts 21°
2026-04-24 21:45 1.21270 103.92152 2723 ft 153 kts 22°
2026-04-24 21:45 1.22274 103.92528 2533 ft 152 kts 23°
2026-04-24 21:46 1.23253 103.92905 2473 ft 146 kts 22°
2026-04-24 21:46 1.24224 103.93258 2447 ft 153 kts 21°
2026-04-24 21:46 1.25252 103.93594 2388 ft 153 kts 20°
2026-04-24 21:46 1.26261 103.93986 2186 ft 157 kts 25°
2026-04-24 21:47 1.27272 103.94364 1941 ft 153 kts 20°
2026-04-24 21:47 1.27936 103.94624 1716 ft 149 kts 28°
2026-04-24 21:47 1.29104 103.95277 1305 ft 140 kts 30°
2026-04-24 21:47 1.29930 103.95669 1148 ft 123 kts 25°
2026-04-24 21:48 1.30760 103.95998 968 ft 130 kts 24°
2026-04-24 21:48 1.31605 103.96366 794 ft 135 kts 24°
2026-04-24 21:48 1.32480 103.96727 570 ft 135 kts 22°
2026-04-24 21:48 1.33344 103.97099 359 ft 134 kts 25°
2026-04-24 21:49 1.34238 103.97463 285 ft 137 kts 22°
2026-04-24 21:49 1.35109 103.97841 116 ft 136 kts 23°
2026-04-24 21:49 1.35986 103.98210 59 ft 135 kts 23°
2026-04-24 21:49 1.36856 103.98577 37 ft 115 kts 23°
2026-04-24 21:50 1.37435 103.98818 31 ft 73 kts 22°
2026-04-24 21:50 1.37786 103.98965 31 ft 34 kts 22°
2026-04-24 21:50 1.37967 103.99042 33 ft 26 kts 23°
2026-04-24 21:50 1.38132 103.99111 34 ft 20 kts 23°
2026-04-24 21:51 1.38177 103.99137 34 ft 6 kts 52°
2026-04-24 21:51 1.38189 103.99181 33 ft 7 kts 94°
2026-04-24 21:51 1.38174 103.99230 33 ft 7 kts 110°
2026-04-24 21:51 1.38153 103.99276 33 ft 6 kts 134°
2026-04-24 21:52 1.38111 103.99293 33 ft 7 kts 180°
2026-04-24 21:52 1.38061 103.99278 32 ft 8 kts 202°
2026-04-24 21:52 1.38003 103.99255 31 ft 9 kts 202°
2026-04-24 21:52 1.37940 103.99228 30 ft 10 kts 204°
2026-04-24 21:53 1.37873 103.99199 30 ft 9 kts 204°
2026-04-24 21:53 1.37809 103.99173 29 ft 10 kts 203°
2026-04-24 21:53 1.37741 103.99144 28 ft 11 kts 203°
2026-04-24 21:53 1.37666 103.99113 27 ft 12 kts 203°
2026-04-24 21:54 1.37587 103.99079 27 ft 12 kts 203°
2026-04-24 21:54 1.37510 103.99047 27 ft 11 kts 203°
2026-04-24 21:54 1.37438 103.99016 28 ft 10 kts 204°
2026-04-24 21:54 1.37376 103.98990 29 ft 8 kts 202°
2026-04-24 21:55 1.37322 103.98968 30 ft 9 kts 202°
2026-04-24 21:55 1.37248 103.98937 30 ft 13 kts 202°
2026-04-24 21:55 1.37159 103.98901 30 ft 13 kts 195°
2026-04-24 21:55 1.37092 103.98937 30 ft 12 kts 111°
2026-04-24 21:56 1.37063 103.99007 30 ft 10 kts 112°
2026-04-24 21:56 1.37038 103.99068 31 ft 8 kts 111°
2026-04-24 21:56 1.37014 103.99120 32 ft 8 kts 113°
2026-04-24 21:56 1.36988 103.99187 33 ft 12 kts 111°
2026-04-24 21:57 1.36951 103.99274 34 ft 13 kts 113°
2026-04-24 21:57 1.36915 103.99357 35 ft 12 kts 114°
2026-04-24 21:57 1.36881 103.99432 36 ft 11 kts 114°
2026-04-24 21:57 1.36850 103.99502 36 ft 10 kts 114°
2026-04-24 21:58 1.36820 103.99573 35 ft 11 kts 112°
2026-04-24 21:58 1.36807 103.99651 34 ft 11 kts 58°
2026-04-24 21:58 1.36869 103.99687 34 ft 8 kts 22°
2026-04-24 21:58 1.36920 103.99707 35 ft 6 kts 22°
2026-04-24 21:59 1.36961 103.99725 37 ft 6 kts 23°
2026-04-24 21:59 1.37000 103.99741 37 ft 5 kts 23°
2026-04-24 21:59 1.37036 103.99757 39 ft 5 kts 23°
2026-04-24 21:59 1.37105 103.99786 41 ft 14 kts 23°
2026-04-24 22:00 1.37195 103.99824 43 ft 12 kts 23°
2026-04-24 22:00 1.37267 103.99855 46 ft 9 kts 23°
2026-04-24 22:00 1.37308 103.99888 48 ft 6 kts 65°
2026-04-24 22:00 1.37314 103.99932 48 ft 6 kts 88°
2026-04-24 22:01 1.37321 103.99979 48 ft 6 kts 66°
2026-04-24 22:01 1.37339 104.00013 48 ft 5 kts 77°
2026-04-24 22:01 1.37342 104.00061 47 ft 6 kts 89°
2026-04-24 22:01 1.37342 104.00079 47 ft 0 kts 89°
2026-04-24 22:02 1.37342 104.00083 47 ft 0 kts 89°